Ignacio, CO

8:59 AM MST on February 10, 2016 (GMT -0700)
Durango-La Plata County

Weather History for KDRO - September, 2014

Change the Weather History Date:

Sunday, September 7, 2014

  Actual Average Record
Temperature  
Mean Temperature 66 °F 62 °F  
Max Temperature 83 °F 78 °F 92 °F (1977)
Min Temperature 48 °F 45 °F 15 °F (1983)
Degree Days  
Heating Degree Days 0 4  
Month to date heating degree days 6 20  
Since 1 July heating degree days 33 49  
Cooling Degree Days 1 0  
Month to date cooling degree days 2 3  
Year to date cooling degree days 294 240  
Growing Degree Days 15 (Base 50)    
Moisture  
Dew Point 42 °F    
Average Humidity 51    
Maximum Humidity 80    
Minimum Humidity 22    
Precipitation  
Precipitation 0.00 in 0.06 in 0.81 in (2002)
Month to date precipitation 0.01 0.43  
Year to date precipitation 5.64 10.40  
Sea Level Pressure  
Sea Level Pressure 30.08 in    
Wind  
Wind Speed 5 mph (NNW)    
Max Wind Speed 26 mph    
Max Gust Speed 35 mph    
Visibility 10 miles    
Events Thunderstorm    
T = Trace of Precipitation, MM = Missing Value Source: NWS Daily Summary

Daily Weather History Graph

Daily Weather History Graph

Search for Another Location

Airport or City:

Trip Planner

Search our weather history database for the weather conditions in past years. The results will help you decide how hot, cold, wet, or windy it might be!

Date:

Astronomy

Sep. 07, 2014 Rise Set
Actual Time 6:46 AM MDT 7:30 PM MDT
Civil Twilight 6:20 AM MDT 7:56 PM MDT
Nautical Twilight 5:49 AM MDT 8:28 PM MDT
Astronomical Twilight 5:17 AM MDT 8:59 PM MDT
Moon 6:31 PM MDT (9/7) 5:04 AM MDT (9/7)
Length of Visible Light 13h 36m
Length of Day
12h 44m
Waxing Gibbous, 97% of the Moon is Illuminated
Sep 7
Waxing Gibbous
Sep 8
Full
Sep 15
Last Quarter
Sep 24
New
Oct 1
First Quarter

Hourly Weather History & Observations

Time (MDT) Temp. Dew Point Humidity Pressure Visibility Wind Dir Wind Speed Gust Speed Precip Events Conditions
12:53 AM 55.9 °F 43.0 °F 62% 30.07 in 10.0 mi ENE 9.2 mph - N/A   Clear
1:53 AM 55.0 °F 45.0 °F 69% 30.08 in 10.0 mi East 5.8 mph - N/A   Clear
2:53 AM 53.1 °F 45.0 °F 74% 30.09 in 10.0 mi ENE 4.6 mph - N/A   Clear
3:53 AM 54.0 °F 45.0 °F 72% 30.10 in 10.0 mi North 4.6 mph - N/A   Clear
4:53 AM 52.0 °F 44.1 °F 74% 30.10 in 10.0 mi NNE 4.6 mph - N/A   Clear
5:53 AM 50.0 °F 43.0 °F 77% 30.12 in 10.0 mi Calm Calm - N/A   Mostly Cloudy
6:53 AM 48.9 °F 43.0 °F 80% 30.12 in 10.0 mi NNW 5.8 mph - N/A   Partly Cloudy
7:53 AM 54.0 °F 45.0 °F 72% 30.13 in 10.0 mi Calm Calm - N/A   Clear
8:53 AM 61.0 °F 46.0 °F 58% 30.12 in 10.0 mi NNW 3.5 mph - N/A   Mostly Cloudy
9:53 AM 63.0 °F 46.9 °F 56% 30.14 in 10.0 mi ENE 5.8 mph - N/A   Mostly Cloudy
10:53 AM 68.0 °F 46.9 °F 47% 30.13 in 10.0 mi Calm Calm - N/A   Clear
11:53 AM 72.0 °F 46.0 °F 40% 30.09 in 10.0 mi Variable 4.6 mph - N/A   Clear
12:53 PM 75.0 °F 45.0 °F 34% 30.05 in 10.0 mi West 4.6 mph - N/A   Clear
1:53 PM 78.1 °F 43.0 °F 29% 30.01 in 10.0 mi North 4.6 mph - N/A   Clear
3:53 PM 80.1 °F 41.0 °F 25% 29.94 in 10.0 mi SW 10.4 mph 20.7 mph N/A   Scattered Clouds
4:53 PM 82.0 °F 39.0 °F 22% 29.91 in 10.0 mi West 13.8 mph 17.3 mph N/A   Partly Cloudy
5:23 PM 78.1 °F 36.0 °F 22% 30.17 in 10.0 mi NNW 19.6 mph 32.2 mph N/A Thunderstorm Overcast
5:30 PM 75.9 °F 37.0 °F 24% 30.17 in 10.0 mi NNW 18.4 mph 29.9 mph N/A Thunderstorm Overcast
5:38 PM 75.9 °F 36.0 °F 23% 30.17 in 10.0 mi NNW 12.7 mph - N/A   Overcast
5:53 PM 75.0 °F 37.9 °F 26% 29.96 in 10.0 mi NW 17.3 mph 23.0 mph N/A   Mostly Cloudy
6:10 PM 73.9 °F 37.9 °F 27% 30.17 in 10.0 mi NNW 20.7 mph 35.7 mph N/A Thunderstorm Mostly Cloudy
6:29 PM 75.0 °F 37.9 °F 26% 30.18 in 10.0 mi NW 17.3 mph 24.2 mph N/A   Mostly Cloudy
6:53 PM 72.0 °F 41.0 °F 33% 29.97 in 10.0 mi North 5.8 mph - N/A   Overcast
7:24 PM 72.0 °F 39.9 °F 31% 30.18 in 10.0 mi WNW 3.5 mph - N/A Thunderstorm Mostly Cloudy
7:39 PM 71.1 °F 42.1 °F 35% 30.19 in 10.0 mi NW 6.9 mph - N/A   Partly Cloudy
7:53 PM 69.1 °F 44.1 °F 40% 29.98 in 10.0 mi NNW 10.4 mph - N/A   Scattered Clouds
10:53 PM 64.9 °F 44.1 °F 47% 29.99 in 10.0 mi WNW 4.6 mph - N/A   Clear
11:53 PM 63.0 °F 45.0 °F 52% 29.99 in 10.0 mi Calm Calm - N/A   Partly Cloudy